| time (UTC) | temp C | wind direction | speed KPH | gust KPH | rain 1hr cm | rain 24hr cm | rain mn cm | humidity % | barometer mb |
| 20260902030031 | 25 | 285 | 0.0 | 0.0 | 0.00 | 0.00 | 0.00 | 84 | 1015.7 |
| 20260902024534 | 25 | 285 | 0.0 | 0.0 | 0.00 | 0.00 | 0.00 | 83 | 1015.8 |
| 20260902023039 | 26 | 285 | 0.0 | 0.0 | 0.00 | 0.00 | 0.00 | 83 | 1015.8 |
| 20260902021544 | 26 | 285 | 0.0 | 0.0 | 0.00 | 0.00 | 0.00 | 83 | 1015.7 |
| 20260902020046 | 26 | 285 | 0.0 | 0.0 | 0.00 | 0.00 | 0.00 | 83 | 1015.6 |
| 20260902014532 | 26 | 285 | 0.0 | 0.0 | 0.00 | 0.00 | 0.00 | 82 | 1015.5 |
| 20260902013038 | 26 | 285 | 0.0 | 0.0 | 0.00 | 0.00 | 0.00 | 81 | 1015.5 |
| 20260902011559 | 26 | 285 | 0.0 | 0.0 | 0.00 | 0.00 | 0.00 | 81 | 1015.3 |
| 20260902010051 | 27 | 285 | 0.0 | 0.0 | 0.00 | 0.00 | 0.00 | 80 | 1015.1 |
| 20260902004600 | 27 | 285 | 0.0 | 0.0 | 0.00 | 0.00 | 0.00 | 79 | 1015.1 |
| 20260902003004 | 28 | 285 | 0.0 | 0.0 | 0.00 | 0.00 | 0.00 | 78 | 1015.2 |
| 20260902001508 | 28 | 285 | 0.0 | 0.0 | 0.00 | 0.00 | 0.00 | 77 | 1015.2 |
| 20260902000010 | 29 | 285 | 0.0 | 0.0 | 0.00 | 0.00 | 0.00 | 77 | 1015.2 |
| 20260901234517 | 29 | 285 | 0.0 | 0.0 | 0.00 | 0.00 | 0.00 | 76 | 1015.2 |
| 20260901233026 | 30 | 285 | 0.0 | 0.0 | 0.00 | 0.00 | 0.00 | 76 | 1015.4 |
| 20260901231519 | 30 | 284 | 0.0 | 0.0 | 0.00 | 0.00 | 0.00 | 76 | 1015.4 |
| 20260901230011 | 31 | 284 | 0.0 | 0.0 | 0.00 | 0.00 | 0.00 | 75 | 1015.4 |
| 20260901224525 | 31 | 284 | 0.0 | 0.0 | 0.00 | 0.00 | 0.00 | 73 | 1015.5 |
| 20260901223022 | 31 | 284 | 0.0 | 0.0 | 0.00 | 0.00 | 0.00 | 72 | 1015.4 |
| 20260901221559 | 31 | 284 | 0.0 | 0.0 | 0.00 | 0.00 | 0.00 | 71 | 1015.3 |
| 20260901220013 | 31 | 148 | 0.0 | 1.6 | 0.00 | 0.00 | 0.00 | 71 | 1015.4 |
| 20260901214520 | 31 | 299 | 0.0 | 1.6 | 0.00 | 0.00 | 0.00 | 69 | 1015.3 |
| 20260901213028 | 32 | 323 | 0.0 | 4.8 | 0.00 | 0.00 | 0.00 | 69 | 1015.4 |
| 20260901211536 | 33 | 325 | 0.0 | 3.2 | 0.00 | 0.00 | 0.00 | 65 | 1015.5 |
| 20260901210040 | 33 | 269 | 0.0 | 6.4 | 0.00 | 0.00 | 0.00 | 64 | 1015.5 |
| 20260901204550 | 33 | 177 | 0.0 | 6.4 | 0.00 | 0.00 | 0.00 | 66 | 1015.4 |
| 20260901203059 | 33 | 312 | 0.0 | 4.8 | 0.00 | 0.00 | 0.00 | 66 | 1015.4 |
| 20260901201600 | 33 | 9 | 0.0 | 0.0 | 0.00 | 0.00 | 0.00 | 65 | 1015.5 |
| 20260901201503 | 33 | 320 | 0.0 | 0.0 | 0.00 | 0.00 | 0.00 | 64 | 1015.5 |
| 20260901200021 | 33 | 276 | 0.0 | 4.8 | 0.00 | 0.00 | 0.00 | 66 | 1015.7 |
| 20260901194517 | 33 | 118 | 0.0 | 3.2 | 0.00 | 0.00 | 0.00 | 67 | 1015.8 |
| 20260901193017 | 33 | 294 | 0.0 | 0.0 | 0.00 | 0.00 | 0.00 | 65 | 1015.7 |
| 20260901191636 | 33 | 38 | 0.0 | 6.4 | 0.00 | 0.00 | 0.00 | 70 | 1015.7 |
| 20260901191502 | 33 | 117 | 0.0 | 6.4 | 0.00 | 0.00 | 0.00 | 68 | 1015.7 |
| 20260901190010 | 33 | 89 | 0.0 | 8.0 | 0.00 | 0.00 | 0.00 | 68 | 1015.8 |
| 20260901184511 | 33 | 260 | 0.0 | 0.0 | 0.00 | 0.00 | 0.00 | 70 | 1016.0 |
| 20260901183026 | 33 | 51 | 0.0 | 6.4 | 0.00 | 0.00 | 0.00 | 69 | 1016.0 |
| 20260901181506 | 32 | 47 | 1.6 | 6.4 | 0.00 | 0.00 | 0.00 | 69 | 1016.1 |
| 20260901180009 | 32 | 90 | 0.0 | 4.8 | 0.00 | 0.00 | 0.00 | 70 | 1016.2 |
| 20260901174511 | 32 | 290 | 0.0 | 4.8 | 0.00 | 0.00 | 0.00 | 70 | 1016.1 |
| 20260901173013 | 32 | 308 | 3.2 | 6.4 | 0.00 | 0.00 | 0.00 | 68 | 1016.2 |
| 20260901171514 | 32 | 82 | 1.6 | 6.4 | 0.00 | 0.00 | 0.00 | 69 | 1016.5 |
| 20260901170016 | 31 | 182 | 0.0 | 4.8 | 0.00 | 0.00 | 0.00 | 71 | 1016.8 |
| 20260901164517 | 31 | 281 | 0.0 | 4.8 | 0.00 | 0.00 | 0.00 | 74 | 1016.9 |
| 20260901163019 | 30 | 267 | 0.0 | 3.2 | 0.00 | 0.00 | 0.00 | 73 | 1017.0 |
| 20260901161526 | 30 | 250 | 0.0 | 3.2 | 0.00 | 0.00 | 0.00 | 74 | 1016.9 |
| 20260901160027 | 30 | 317 | 0.0 | 4.8 | 0.00 | 0.00 | 0.00 | 72 | 1017.0 |
| 20260901154533 | 30 | 281 | 0.0 | 4.8 | 0.00 | 0.00 | 0.00 | 74 | 1017.0 |
| 20260901153032 | 28 | 360 | 0.0 | 0.0 | 0.00 | 0.00 | 0.00 | 78 | 1017.0 |
| 20260901151544 | 28 | 152 | 1.6 | 6.4 | 0.00 | 0.00 | 0.00 | 76 | 1017.1 |
| 20260901150051 | 28 | 273 | 0.0 | 4.8 | 0.00 | 0.00 | 0.00 | 80 | 1017.2 |
| 20260901144551 | 27 | 261 | 0.0 | 8.0 | 0.00 | 0.00 | 0.00 | 79 | 1017.2 |
| 20260901143107 | 27 | 304 | 1.6 | 6.4 | 0.00 | 0.00 | 0.00 | 81 | 1017.2 |
| 20260901141547 | 26 | 33 | 0.0 | 6.4 | 0.00 | 0.00 | 0.00 | 82 | 1017.2 |
| 20260901140130 | 26 | 330 | 0.0 | 4.8 | 0.00 | 0.00 | 0.00 | 83 | 1017.2 |
| 20260901134537 | 25 | 313 | 0.0 | 4.8 | 0.00 | 0.00 | 0.00 | 85 | 1017.2 |
| 20260901133037 | 24 | 298 | 0.0 | 4.8 | 0.00 | 0.00 | 0.00 | 87 | 1017.4 |
| 20260901131544 | 23 | 264 | 0.0 | 0.0 | 0.00 | 0.00 | 0.00 | 88 | 1017.4 |
| 20260901130057 | 23 | 264 | 0.0 | 0.0 | 0.00 | 0.00 | 0.00 | 88 | 1017.5 |
| 20260901124601 | 22 | 264 | 0.0 | 0.0 | 0.00 | 0.00 | 0.00 | 88 | 1017.5 |
| 20260901124502 | 22 | 264 | 0.0 | 0.0 | 0.00 | 0.00 | 0.00 | 88 | 1017.5 |
| 20260901123011 | 22 | 264 | 0.0 | 0.0 | 0.00 | 0.00 | 0.00 | 88 | 1017.5 |
| 20260901121518 | 22 | 264 | 0.0 | 0.0 | 0.00 | 0.00 | 0.00 | 88 | 1017.4 |
| 20260901120023 | 21 | 264 | 0.0 | 0.0 | 0.00 | 0.00 | 0.00 | 89 | 1017.3 |
| 20260901114511 | 21 | 233 | 0.0 | 0.0 | 0.00 | 0.00 | 0.00 | 89 | 1017.2 |
| 20260901113014 | 21 | 233 | 0.0 | 0.0 | 0.00 | 0.00 | 0.00 | 88 | 1016.9 |
| 20260901111518 | 21 | 233 | 0.0 | 0.0 | 0.00 | 0.00 | 0.00 | 89 | 1016.7 |
| 20260901110017 | 21 | 233 | 0.0 | 0.0 | 0.00 | 0.00 | 0.00 | 89 | 1016.7 |
| 20260901104521 | 21 | 233 | 0.0 | 0.0 | 0.00 | 0.00 | 0.00 | 89 | 1016.7 |
| 20260901103018 | 21 | 233 | 0.0 | 0.0 | 0.00 | 0.00 | 0.00 | 89 | 1016.6 |
| 20260901101552 | 21 | 233 | 0.0 | 0.0 | 0.00 | 0.00 | 0.00 | 88 | 1016.4 |
| 20260901100032 | 21 | 233 | 0.0 | 0.0 | 0.00 | 0.00 | 0.00 | 88 | 1016.3 |
| 20260901094527 | 21 | 233 | 0.0 | 0.0 | 0.00 | 0.00 | 0.00 | 89 | 1016.3 |
| 20260901093014 | 21 | 233 | 0.0 | 0.0 | 0.00 | 0.00 | 0.00 | 89 | 1016.3 |
| 20260901091531 | 22 | 233 | 0.0 | 0.0 | 0.00 | 0.00 | 0.00 | 88 | 1016.2 |
| 20260901090026 | 22 | 233 | 0.0 | 0.0 | 0.00 | 0.00 | 0.00 | 88 | 1016.1 |
| 20260901084537 | 22 | 233 | 0.0 | 0.0 | 0.00 | 0.00 | 0.00 | 88 | 1016.1 |
| 20260901083039 | 22 | 233 | 0.0 | 0.0 | 0.00 | 0.00 | 0.00 | 88 | 1016.1 |
| 20260901081534 | 22 | 233 | 0.0 | 0.0 | 0.00 | 0.00 | 0.00 | 88 | 1016.0 |
| 20260901080136 | 22 | 233 | 0.0 | 0.0 | 0.00 | 0.00 | 0.00 | 88 | 1016.0 |
| 20260901074546 | 22 | 233 | 0.0 | 0.0 | 0.00 | 0.00 | 0.00 | 88 | 1016.0 |
| 20260901073053 | 22 | 233 | 0.0 | 0.0 | 0.00 | 0.00 | 0.00 | 88 | 1016.0 |
| 20260901071543 | 22 | 233 | 0.0 | 0.0 | 0.00 | 0.00 | 0.00 | 88 | 1016.0 |
| 20260901070042 | 22 | 233 | 0.0 | 0.0 | 0.00 | 0.00 | 0.00 | 88 | 1016.0 |
| 20260901064550 | 22 | 233 | 0.0 | 0.0 | 0.00 | 0.00 | 0.00 | 88 | 1016.1 |
| 20260901063056 | 22 | 233 | 0.0 | 0.0 | 0.00 | 0.00 | 0.00 | 88 | 1016.1 |
| 20260901061603 | 23 | 233 | 0.0 | 0.0 | 0.00 | 0.00 | 0.00 | 88 | 1016.1 |
| 20260901060036 | 23 | 233 | 0.0 | 0.0 | 0.00 | 0.00 | 0.00 | 87 | 1016.2 |
| 20260901054543 | 23 | 233 | 0.0 | 0.0 | 0.00 | 0.00 | 0.00 | 87 | 1016.2 |
| 20260901053044 | 23 | 233 | 0.0 | 0.0 | 0.00 | 0.00 | 0.00 | 88 | 1015.8 |
| 20260901051548 | 23 | 233 | 0.0 | 0.0 | 0.00 | 0.00 | 0.00 | 88 | 1015.4 |
| 20260901050050 | 23 | 296 | 0.0 | 0.0 | 0.00 | 0.00 | 0.00 | 88 | 1015.2 |
| 20260901044613 | 23 | 296 | 0.0 | 0.0 | 0.00 | 0.00 | 0.00 | 87 | 1015.6 |
| 20260901043054 | 23 | 296 | 0.0 | 0.0 | 0.00 | 0.00 | 0.00 | 87 | 1016.0 |
| 20260901041558 | 23 | 296 | 0.0 | 0.0 | 0.00 | 0.00 | 0.00 | 87 | 1016.0 |
| 20260901034550 | 23 | 296 | 0.0 | 0.0 | 0.00 | 0.00 | 0.00 | 87 | 1016.1 |
| 20260901033055 | 23 | 145 | 0.0 | 0.0 | 0.00 | 0.00 | 0.00 | 87 | 1016.2 |
| 20260901031539 | 23 | 145 | 0.0 | 0.0 | 0.00 | 0.00 | 0.00 | 87 | 1016.4 |